User: anonymous   Login
Location: Unspecified
(34.5400°N, 0.0000°E)
Time: 10:09:46
(UTC+00:00)
Language:

Yuri Rocket - Orbit

View from above orbital plane
View from above orbital plane
View from above satellite
View from above satellite

Ground track
Ground track

The orbit is defined by the following mean orbital elements,

1 10793U          26088.22747838 +.00000000 +00000-0 +45514-3 0 00000
2 10793  28.2302  57.7791 0874023 359.3417   0.5960 13.07580859    07
Epoch (UTC): 29 March 2026 05:27:34
Eccentricity: 0.0874023
inclination: 28.2302°
perigee height: 567 km
apogee height: 1898 km
right ascension of ascending node: 57.7791°
argument of perigee: 359.3417°
revolutions per day: 13.07580859
mean anomaly at epoch: 0.5960°

The dashed part of the orbit path shows where the satellite is in the earth's shadow,  

DLR